Weather History for Mora, MN

Change the Weather History Date:

Monday, March 10, 2014

  Actual Average Record
Temperature  
Mean Temperature 40 °F -  
Max Temperature 53 °F 36 °F 54 °F (1977)
Min Temperature 26 °F 13 °F -22 °F (1948)
Degree Days  
Heating Degree Days 26    
Moisture  
Dew Point 29 °F    
Average Humidity 68    
Maximum Humidity 100    
Minimum Humidity 38    
Precipitation  
Precipitation 0.00 in - - ()
Sea Level Pressure  
Sea Level Pressure 29.63 in    
Wind  
Wind Speed 3 mph (West)    
Max Wind Speed 10 mph    
Max Gust Speed -    
Visibility 10 miles    
Events      
Averages and records for this station are not official NWS values.
T = Trace of Precipitation, MM = Missing Value Source: NWS Daily Summary

Daily Weather History Graph

Daily Weather History Graph

Search for Another Location

Airport:

Trip Planner

Search our weather history database for the weather conditions in past years. The results will help you decide how hot, cold, wet, or windy it might be!

Date:

Astronomy

Mar. 10, 2014 Rise Set
Actual Time 7:35 AM CDT 7:12 PM CDT
Civil Twilight 7:05 AM CDT 7:41 PM CDT
Nautical Twilight 6:30 AM CDT 8:16 PM CDT
Astronomical Twilight 5:55 AM CDT 8:51 PM CDT
Moon 1:43 PM CDT (3/10) 4:00 AM CDT (3/10)
Length of Visible Light 12h 36m
Length of Day
11h 37m
Waxing Gibbous, 70% of the Moon is Illuminated
Mar 10
Waxing Gibbous
Mar 16
Full
Mar 23
Last Quarter
Mar 30
New
Apr 7
First Quarter

Hourly Weather History & Observations

Time (CDT) Temp. Windchill Dew Point Humidity Pressure Visibility Wind Dir Wind Speed Gust Speed Precip Events Conditions
12:11 AM 32.0 °F - 28.4 °F 87% 29.64 in 10.0 mi Calm Calm - N/A   Clear
12:31 AM 32.0 °F - 28.4 °F 87% 29.63 in 10.0 mi Calm Calm - N/A   Clear
12:51 AM 32.0 °F - 28.4 °F 87% 29.63 in 10.0 mi Calm Calm - N/A   Clear
1:11 AM 30.2 °F - 28.4 °F 93% 29.64 in 10.0 mi Calm Calm - N/A   Clear
1:31 AM 32.0 °F - 28.4 °F 87% 29.63 in 10.0 mi Calm Calm - N/A   Clear
1:51 AM 30.2 °F - 28.4 °F 93% 29.63 in 10.0 mi Calm Calm - N/A   Clear
2:11 AM 32.0 °F - 30.2 °F 93% 29.62 in 10.0 mi Calm Calm - N/A   Clear
2:31 AM 30.2 °F - 26.6 °F 86% 29.60 in 7.0 mi Calm Calm - N/A   Clear
2:51 AM 30.2 °F - 28.4 °F 93% 29.60 in 10.0 mi Calm Calm - N/A   Clear
3:11 AM 30.2 °F - 28.4 °F 93% 29.59 in 7.0 mi Calm Calm - N/A   Clear
3:31 AM 28.4 °F - 26.6 °F 93% 29.60 in 7.0 mi Calm Calm - N/A   Clear
3:51 AM 28.4 °F 24.6 °F 26.6 °F 93% 29.58 in 5.0 mi South 3.5 mph - N/A   Clear
4:11 AM 26.6 °F - 24.8 °F 93% 29.58 in 4.0 mi Calm Calm - N/A   Clear
4:31 AM 26.6 °F - 24.8 °F 93% 29.57 in 3.0 mi Calm Calm - N/A   Clear
4:51 AM 26.6 °F 22.6 °F 26.6 °F 100% 29.56 in 5.0 mi SW 3.5 mph - N/A   Clear
5:11 AM 28.4 °F 24.6 °F 26.6 °F 93% 29.56 in 10.0 mi WSW 3.5 mph - N/A   Clear
5:31 AM 32.0 °F 27.5 °F 30.2 °F 93% 29.56 in 10.0 mi WSW 4.6 mph - N/A   Clear
5:51 AM 32.0 °F 27.5 °F 30.2 °F 93% 29.57 in 10.0 mi WSW 4.6 mph - N/A   Clear
6:11 AM 32.0 °F 25.6 °F 30.2 °F 93% 29.58 in 10.0 mi WSW 6.9 mph - N/A   Clear
6:31 AM 32.0 °F 27.5 °F 30.2 °F 93% 29.57 in 10.0 mi WSW 4.6 mph - N/A   Clear
6:51 AM 32.0 °F 26.4 °F 30.2 °F 93% 29.58 in 10.0 mi WSW 5.8 mph - N/A   Clear
7:11 AM 32.0 °F 26.4 °F 30.2 °F 93% 29.58 in 10.0 mi SW 5.8 mph - N/A   Clear
7:31 AM 32.0 °F - 30.2 °F 93% 29.58 in 10.0 mi Calm Calm - N/A   Clear
7:51 AM 30.2 °F - 28.4 °F 93% 29.58 in 10.0 mi Calm Calm - N/A   Clear
8:11 AM 30.2 °F - 28.4 °F 93% 29.58 in 7.0 mi Calm Calm - N/A   Clear
8:31 AM 32.0 °F - 30.2 °F 93% 29.59 in 10.0 mi Calm Calm - N/A   Clear
8:51 AM 32.0 °F - 30.2 °F 93% 29.59 in 10.0 mi Calm Calm - N/A   Clear
9:11 AM 35.6 °F 32.8 °F 32.0 °F 87% 29.59 in 10.0 mi West 3.5 mph - N/A   Clear
9:31 AM 37.4 °F 31.4 °F 32.0 °F 81% 29.60 in 10.0 mi West 8.1 mph - N/A   Clear
9:51 AM 42.8 °F 37.5 °F 33.8 °F 70% 29.60 in 10.0 mi West 9.2 mph - N/A   Clear
10:11 AM 44.6 °F 40.2 °F 33.8 °F 66% 29.60 in 10.0 mi West 8.1 mph - N/A   Clear
10:31 AM 44.6 °F 40.2 °F 33.8 °F 66% 29.62 in 10.0 mi West 8.1 mph - N/A   Clear
10:51 AM 44.6 °F 39.7 °F 32.0 °F 61% 29.62 in 10.0 mi WNW 9.2 mph - N/A   Clear
11:11 AM 46.4 °F 42.9 °F 32.0 °F 57% 29.63 in 10.0 mi West 6.9 mph - N/A   Clear
11:31 AM 48.2 °F - 32.0 °F 54% 29.64 in 10.0 mi WNW 8.1 mph - N/A   Clear
11:51 AM 50.0 °F - 32.0 °F 50% 29.64 in 10.0 mi West 6.9 mph - N/A   Clear
12:11 PM 50.0 °F - 32.0 °F 50% 29.64 in 10.0 mi West 6.9 mph - N/A   Clear
12:31 PM 50.0 °F - 32.0 °F 50% 29.64 in 10.0 mi West 8.1 mph - N/A   Clear
12:51 PM 50.0 °F - 32.0 °F 50% 29.65 in 10.0 mi West 9.2 mph - N/A   Clear
1:11 PM 50.0 °F - 32.0 °F 50% 29.65 in 10.0 mi West 10.4 mph - N/A   Clear
1:31 PM 50.0 °F - 32.0 °F 50% 29.64 in 10.0 mi WSW 5.8 mph - N/A   Clear
1:51 PM 50.0 °F - 32.0 °F 50% 29.65 in 10.0 mi West 6.9 mph - N/A   Clear
2:11 PM 51.8 °F - 32.0 °F 47% 29.64 in 10.0 mi West 9.2 mph - N/A   Clear
2:31 PM 51.8 °F - 32.0 °F 47% 29.65 in 10.0 mi West 8.1 mph - N/A   Clear
2:51 PM 53.6 °F - 30.2 °F 41% 29.63 in 10.0 mi West 8.1 mph - N/A   Clear
3:11 PM 53.6 °F - 30.2 °F 41% 29.63 in 10.0 mi West 6.9 mph - N/A   Clear
3:31 PM 51.8 °F - 28.4 °F 41% 29.63 in 10.0 mi WNW 5.8 mph - N/A   Clear
3:51 PM 51.8 °F - 30.2 °F 44% 29.62 in 10.0 mi NW 9.2 mph - N/A   Clear
4:11 PM 53.6 °F - 28.4 °F 38% 29.62 in 10.0 mi West 9.2 mph - N/A   Clear
4:31 PM 51.8 °F - 28.4 °F 41% 29.62 in 10.0 mi WNW 9.2 mph - N/A   Clear
4:51 PM 50.0 °F - 26.6 °F 40% 29.62 in 10.0 mi West 5.8 mph - N/A   Clear
5:11 PM 50.0 °F - 28.4 °F 43% 29.63 in 10.0 mi West 5.8 mph - N/A   Clear
5:31 PM 50.0 °F - 28.4 °F 43% 29.64 in 10.0 mi WNW 6.9 mph - N/A   Clear
5:51 PM 50.0 °F - 28.4 °F 43% 29.64 in 10.0 mi West 6.9 mph - N/A   Clear
6:11 PM 48.2 °F - 28.4 °F 46% 29.64 in 10.0 mi West 5.8 mph - N/A   Clear
6:31 PM 48.2 °F - 28.4 °F 46% 29.65 in 10.0 mi West 8.1 mph - N/A   Clear
6:51 PM 44.6 °F 40.7 °F 28.4 °F 53% 29.65 in 10.0 mi West 6.9 mph - N/A   Clear
7:11 PM 44.6 °F 40.7 °F 28.4 °F 53% 29.66 in 10.0 mi West 6.9 mph - N/A   Clear
7:31 PM 44.6 °F 42.2 °F 28.4 °F 53% 29.67 in 10.0 mi West 4.6 mph - N/A   Clear
7:51 PM 44.6 °F 41.4 °F 30.2 °F 57% 29.67 in 10.0 mi West 5.8 mph - N/A   Clear
8:11 PM 42.8 °F 40.1 °F 28.4 °F 57% 29.67 in 10.0 mi West 4.6 mph - N/A   Scattered Clouds
8:31 PM 41.0 °F 38.0 °F 28.4 °F 61% 29.68 in 10.0 mi West 4.6 mph - N/A   Mostly Cloudy
8:51 PM 42.8 °F 41.1 °F 28.4 °F 57% 29.69 in 10.0 mi West 3.5 mph - N/A   Overcast
9:11 PM 41.0 °F 38.0 °F 28.4 °F 61% 29.69 in 10.0 mi West 4.6 mph - N/A   Overcast
9:31 PM 42.8 °F 39.3 °F 28.4 °F 57% 29.69 in 10.0 mi WNW 5.8 mph - N/A   Overcast
9:51 PM 42.8 °F 40.1 °F 28.4 °F 57% 29.69 in 10.0 mi WNW 4.6 mph - N/A   Mostly Cloudy
10:11 PM 42.8 °F 39.3 °F 30.2 °F 61% 29.69 in 10.0 mi West 5.8 mph - N/A   Mostly Cloudy
10:31 PM 42.8 °F 39.3 °F 30.2 °F 61% 29.69 in 10.0 mi WNW 5.8 mph - N/A   Overcast
10:51 PM 41.0 °F 37.1 °F 28.4 °F 61% 29.69 in 10.0 mi NW 5.8 mph - N/A   Mostly Cloudy
11:11 PM 41.0 °F 37.1 °F 28.4 °F 61% 29.68 in 10.0 mi WNW 5.8 mph - N/A   Scattered Clouds
11:31 PM 39.2 °F 35.9 °F 28.4 °F 65% 29.69 in 10.0 mi NW 4.6 mph - N/A   Clear
11:51 PM 37.4 °F 33.8 °F 28.4 °F 70% 29.69 in 10.0 mi NW 4.6 mph - N/A   Scattered Clouds